THORAD AGENA D DEB

Satellite information

Favourite Embed

Satellite Type and Status

DEBRISIN ORBIT

Key statistics

Satellite THORAD AGENA D DEB at a glance.

Uptime

20287

Days in orbit

Revolutions

≈ 14.0

Per day

Orbit

SSO

Sun Synchronous Orbit

Inclination

99.7

Latest

Satellite identification and parameters

Extended collection of information and parameters for THORAD AGENA D DEB.

Object identification

Identified? True

Debris? True

Object name: THORAD AGENA D DEB

International designator: 1970-025KB

Object number (NORAD): 5185

Object ID (CCSDS): 5185

Country: UNITED STATES OF AMERICA (US)

Current information (Y/N): Y

RCS size: SMALL

Orbital parameters

Period: 103.085 minutes

Inclination: 99.6528 deg

SMA: 7282.648 km

Apoapsis: 953.018 km

Periapsis: 856.008 km

RAAN: 352.5529 deg

Eccentricy: 0.00666035

Argument of periapsis: 146.0191 deg

Mean anomaly: 214.5263 deg

Mean motion: 13.96911054 rev/day

Mean motion (dot): 0.00002994 rev/day2

B* drag term: 0.0021440396 1/REarth

Two-line elements (TLE)

Creation date: Oct. 23, 2025, 2:46 a.m.

Reference frame: TEME

Reference center: EARTH

Epoch: Oct. 22, 2025, 3:26 p.m. UTC

TLE line 0: 0 THORAD AGENA D DEB

TLE line 1: 1 05185U 70025KB 25295.64331408 .00002994 00000-0 21440-2 0 9992

TLE line 2: 2 05185 99.6528 352.5529 0066603 146.0191 214.5263 13.96911054768681

Live tracking on map

Real-time ground track for satellite THORAD AGENA D DEB.

In-orbit conjunctions

A list of the most updated potential collisions computed for object THORAD AGENA D DEB.

Target Orbit TCA Probability of collision Miss distance Type
COSMOS 1275 DEB LEO 2024-11-18 23:53:28 0.0002277602 84.0 (m) DEBRIS
COSMOS 1275 DEB LEO 2024-11-11 12:52:58 0.0006228862 331.0 (m) DEBRIS

Associated space launch

Meteorological research and development satellite

THORAD AGENA D DEB was lifted into orbit during the mission ‘Thorad SLV-2G Agena D | Nimbus 4’, on board a Thorad SLV-2G Agena D space rocket.

The launch took place on April 8, 1970, 8:17 a.m. from Space Launch Complex 2E.

For more information about the launch, click the button.

Launch to space Thorad SLV-2G Agena D | Nimbus 4
Thorad SLV-2G Agena D | Nimbus 4

Agency: N/A

Status: Launch Successful

Launch date: April 8, 1970, 8:17 a.m. UTC

Rocket: Thorad SLV-2G Agena D

Launch pad: Space Launch Complex 2E

Location: Vandenberg SFB, CA, USA

...

Latest news about this satellite

There are no fresh news available about this satellite. Check back as we update our databases every day.


Newsletter sign-up

Weekly statistics, charts and insights to help you stay on top of the space industry.